Notices

What's New in latest Release from April 7th, 2021:

- Updated Glossary, including Speed of Maximum Gust, and Total Hourly Precipitation

- Updated national and regional climate services offices contacts and prices information

- Addition of station inventory lists for 1981-2010, 1971-2000, and 1961-1990 Normals.

If you haven't already, please take our survey and provide feedback about our website: https://eccc.sondage-survey.ca/f/LanguageSelection.aspx?s=442ca660-fcf1-47c0-95a9-59707d6fd709

Hourly Data Report for January 11, 2021

SHEARWATER RCS
NOVA SCOTIA
Current Station Operator: ECCC - MSC

44°37'47.000" N
63°30'48.000" W
24.00 m
8205092
71264
AAW

Download Data

Hourly Data (January 2021)
Hourly Data Report for January 11, 2021
TIME
LST
Temp Definition
°C
Dew Point Definition
°C
Rel Hum Definition
%
Precip. Amount Definition
mm

Wind Dir Definition
10's deg

Wind Spd Definition
km/h
Visibility Definition
km
Stn Press Definition
kPa
Hmdx Definition


Wind Chill Definition


Weather Definition


00:00 -4.5 -7.0 83 0.0 32 7   101.65   -8 LegendNANA
01:00 -4.5 -6.8 84 0.0 32 7   101.70   -8 LegendNANA
02:00 -3.9 -6.8 80 0.0 32 8   101.76   -7 LegendNANA
03:00 -4.2 -7.0 81 0.0 33 5   101.81   -6 LegendNANA
04:00 -4.4 -6.2 87 0.0 33 7   101.83   -8 LegendNANA
05:00 -4.8 -6.6 87 0.0 33 9   101.85   -9 LegendNANA
06:00 -5.8 -7.3 89 0.0 33 5   101.90   -8 LegendNANA
07:00 -5.7 -7.2 89 0.0 33 9   101.95   -10 LegendNANA
08:00 -5.6 -7.2 89 0.0 34 7   102.01   -9 LegendNANA
09:00 -3.6 -5.9 84 0.0 32 6   102.05   -6 LegendNANA
10:00 -1.6 -5.2 76 0.0 24 6   102.07   -4 LegendNANA
11:00 -0.4 -4.3 75 0.0 26 8   102.05   -3 LegendNANA
12:00 1.1 -4.7 65 0.0 25 8   101.92     LegendNANA
13:00 2.3 -5.6 56 0.0 30 11   101.83     LegendNANA
14:00 3.2 -6.4 49 0.0 31 12   101.79     LegendNANA
15:00 4.2 -7.1 44 0.0 31 9   101.80     LegendNANA
16:00 3.8 -6.1 48 0.0 27 6   101.81     LegendNANA
17:00 1.9 -5.4 58 0.0 23 7   101.80     LegendNANA
18:00 1.3 -4.2 67 0.0 24 7   101.82     LegendNANA
19:00 1.3 -3.9 68 0.0 24 6   101.84     LegendNANA
20:00 1.3 -4.1 67 0.0 25 3   101.83     LegendNANA
21:00 1.4 -3.6 69 0.0 26 4   101.78     LegendNANA
22:00 1.5 -3.4 70 0.0 28 3   101.75     LegendNANA
23:00 1.0 -3.4 73 0.0 25 5   101.75     LegendNANA

Notes on Data Quality.

Legend

  • E = Estimated
  • M = Missing
  • NA = Not Available*
  • [empty] = Indicates an unobserved value
Date modified: